2021-03-21 00:07:36 r, 20.13m,0000000000Hz,0000609375c,0000001.322s, 021.2C,00002191
2021-03-21 00:17:37 r, 20.13m,0000000001Hz,0000618350c,0000001.342s, 020.9C,00002191
2021-03-21 00:27:35 r, 20.18m,0000000000Hz,0000640247c,0000001.389s, 020.9C,00002191
2021-03-21 00:37:37 r, 20.14m,0000000001Hz,0000619873c,0000001.345s, 020.9C,00002191
2021-03-21 00:47:36 r, 20.14m,0000000001Hz,0000619072c,0000001.343s, 020.6C,00002191
2021-03-21 00:57:35 r, 20.20m,0000000001Hz,0000652790c,0000001.417s, 020.3C,00002191
2021-03-21 01:07:36 r, 20.30m,0000000000Hz,0000719825c,0000001.562s, 020.3C,00002191
2021-03-21 01:17:38 r, 20.35m,0000000000Hz,0000752785c,0000001.634s, 019.9C,00002191
2021-03-21 01:27:35 r, 20.39m,0000000000Hz,0000774447c,0000001.681s, 019.9C,00002191
2021-03-21 01:37:38 r, 20.41m,0000000001Hz,0000796720c,0000001.729s, 019.6C,00002191
2021-03-21 01:47:36 r, 20.45m,0000000000Hz,0000824620c,0000001.790s, 019.6C,00002191
2021-03-21 01:57:35 r, 20.47m,0000000001Hz,0000836956c,0000001.816s, 019.3C,00002191
2021-03-21 02:07:38 r, 20.53m,0000000000Hz,0000888825c,0000001.929s, 019.0C,00002191
2021-03-21 02:17:36 r, 19.52m,0000000001Hz,0000353315c,0000000.767s, 018.6C,00002191
2021-03-21 02:27:35 r, 19.60m,0000000001Hz,0000377139c,0000000.818s, 018.6C,00002191
2021-03-21 02:37:36 r, 19.71m,0000000001Hz,0000420661c,0000000.913s, 019.0C,00002191
2021-03-21 02:47:37 r, 20.11m,0000000001Hz,0000605865c,0000001.315s, 019.0C,00002191
2021-03-21 02:57:35 r, 20.45m,0000000000Hz,0000827267c,0000001.795s, 019.0C,00002191
2021-03-21 03:07:37 r, 20.32m,0000000001Hz,0000729618c,0000001.583s, 018.6C,00002191
2021-03-21 03:17:36 r, 20.31m,0000000000Hz,0000723440c,0000001.570s, 018.6C,00002191
2021-03-21 03:27:35 r, 20.67m,0000000000Hz,0000997488c,0000002.165s, 018.3C,00002191
2021-03-21 03:37:36 r, 20.73m,0000000001Hz,0001062724c,0000002.306s, 018.0C,00002191
2021-03-21 03:47:38 r, 20.68m,0000000000Hz,0001009343c,0000002.190s, 018.0C,00002191
2021-03-21 03:57:35 r, 20.80m,0000000001Hz,0001131663c,0000002.456s, 017.7C,00002191
2021-03-21 04:07:38 r, 20.80m,0000000001Hz,0001127091c,0000002.446s, 017.4C,00002191
2021-03-21 04:17:36 r, 20.76m,0000000001Hz,0001092946c,0000002.372s, 017.0C,00002191
2021-03-21 04:27:35 r, 20.72m,0000000001Hz,0001045257c,0000002.268s, 017.0C,00002191
2021-03-21 04:37:38 r, 20.52m,0000000001Hz,0000873148c,0000001.895s, 016.7C,00002191
2021-03-21 04:47:36 r, 20.15m,0000000001Hz,0000628944c,0000001.365s, 016.4C,00002191
2021-03-21 04:57:35 r, 20.07m,0000000001Hz,0000577786c,0000001.254s, 016.4C,00002191
2021-03-21 05:07:36 r, 20.13m,0000000001Hz,0000616189c,0000001.337s, 016.1C,00002191
2021-03-21 05:17:36 r, 20.30m,0000000001Hz,0000713937c,0000001.549s, 015.7C,00002191
2021-03-21 05:27:35 r, 20.30m,0000000000Hz,0000718151c,0000001.558s, 015.4C,00002191
2021-03-21 05:37:37 r, 20.31m,0000000000Hz,0000723870c,0000001.571s, 015.1C,00002191
2021-03-21 05:47:36 r, 20.22m,0000000001Hz,0000667911c,0000001.449s, 014.8C,00002191
2021-03-21 05:57:35 r, 20.21m,0000000001Hz,0000661185c,0000001.435s, 014.5C,00002191
2021-03-21 06:07:38 r, 20.17m,0000000001Hz,0000635627c,0000001.379s, 014.1C,00002191
2021-03-21 06:17:36 r, 19.46m,0000000002Hz,0000333098c,0000000.723s, 014.1C,00002191
2021-03-21 06:27:35 r, 18.64m,0000000003Hz,0000157142c,0000000.341s, 014.1C,00002191
2021-03-21 06:37:38 r, 17.55m,0000000008Hz,0000057578c,0000000.125s, 014.1C,00002191
2021-03-21 06:47:36 r, 15.94m,0000000036Hz,0000013041c,0000000.028s, 014.5C,00002191
2021-03-21 06:57:35 r, 13.64m,0000000297Hz,0000000000c,0000000.000s, 014.5C,00002191
2021-03-21 07:07:36 r, 11.20m,0000002804Hz,0000000000c,0000000.000s, 014.8C,00002191
2021-03-21 07:17:37 r, 09.37m,0000015084Hz,0000000000c,0000000.000s, 014.8C,00002191
2021-03-21 07:27:35 r, 08.09m,0000049088Hz,0000000000c,0000000.000s, 015.1C,00002191
2021-03-21 07:37:37 r, 07.16m,0000115481Hz,0000000000c,0000000.000s, 015.1C,00002191
2021-03-21 07:47:36 r, 06.49m,0000214803Hz,0000000000c,0000000.000s, 015.1C,00002191
2021-03-21 07:57:35 r, 05.92m,0000362037Hz,0000000000c,0000000.000s, 015.4C,00002191
2021-03-21 08:07:36 r, 00.00m,0000597533Hz,0000000000c,0000000.000s, 015.4C,00002191
2021-03-21 08:17:38 r, 00.00m,0000597381Hz,0000000000c,0000000.000s, 015.4C,00002191
2021-03-21 08:27:35 r, 00.00m,0000597370Hz,0000000000c,0000000.000s, 016.1C,00002191
2021-03-21 08:37:38 r, 00.00m,0000597231Hz,0000000000c,0000000.000s, 016.4C,00002191
2021-03-21 08:47:36 r, 00.00m,0000597282Hz,0000000000c,0000000.000s, 016.7C,00002191
2021-03-21 08:57:35 r, 00.00m,0000597274Hz,0000000000c,0000000.000s, 016.7C,00002191
2021-03-21 09:07:38 r, 00.00m,0000597235Hz,0000000000c,0000000.000s, 017.4C,00002191
2021-03-21 09:17:36 r, 00.00m,0000597164Hz,0000000000c,0000000.000s, 017.7C,00002191
2021-03-21 09:27:35 r, 00.00m,0000597044Hz,0000000000c,0000000.000s, 018.3C,00002191
2021-03-21 09:37:36 r, 00.00m,0000596969Hz,0000000000c,0000000.000s, 019.3C,00002191
2021-03-21 09:47:37 r, 00.00m,0000597053Hz,0000000000c,0000000.000s, 019.3C,00002191
2021-03-21 09:57:35 r, 00.00m,0000597089Hz,0000000000c,0000000.000s, 019.0C,00002191
2021-03-21 10:07:37 r, 00.00m,0000597094Hz,0000000000c,0000000.000s, 019.0C,00002191
2021-03-21 10:17:36 r, 00.00m,0000597010Hz,0000000000c,0000000.000s, 019.6C,00002191
2021-03-21 10:27:35 r, 00.00m,0000596927Hz,0000000000c,0000000.000s, 019.9C,00002191
2021-03-21 10:37:36 r, 00.00m,0000597055Hz,0000000000c,0000000.000s, 019.6C,00002191
2021-03-21 10:47:38 r, 00.00m,0000597073Hz,0000000000c,0000000.000s, 019.0C,00002191
2021-03-21 10:57:35 r, 00.00m,0000597088Hz,0000000000c,0000000.000s, 019.0C,00002191
2021-03-21 11:07:38 r, 00.00m,0000597107Hz,0000000000c,0000000.000s, 018.6C,00002191
2021-03-21 11:17:36 r, 00.00m,0000597135Hz,0000000000c,0000000.000s, 018.6C,00002191
2021-03-21 11:27:35 r, 00.00m,0000597079Hz,0000000000c,0000000.000s, 019.3C,00002191
2021-03-21 11:37:36 r, 00.00m,0000597036Hz,0000000000c,0000000.000s, 019.6C,00002191
2021-03-21 11:47:37 r, 00.00m,0000597047Hz,0000000000c,0000000.000s, 019.6C,00002191
2021-03-21 11:57:35 r, 00.00m,0000596976Hz,0000000000c,0000000.000s, 019.0C,00002191
2021-03-21 12:07:37 r, 00.00m,0000597112Hz,0000000000c,0000000.000s, 018.6C,00002191
2021-03-21 12:17:36 r, 00.00m,0000597114Hz,0000000000c,0000000.000s, 019.0C,00002191
2021-03-21 12:27:35 r, 00.00m,0000597090Hz,0000000000c,0000000.000s, 019.0C,00002191
2021-03-21 12:37:36 r, 00.00m,0000597123Hz,0000000000c,0000000.000s, 019.0C,00002191
2021-03-21 12:47:38 r, 00.00m,0000597062Hz,0000000000c,0000000.000s, 018.6C,00002191
2021-03-21 12:57:35 r, 00.00m,0000597109Hz,0000000000c,0000000.000s, 019.0C,00002191
2021-03-21 13:07:38 r, 00.00m,0000597147Hz,0000000000c,0000000.000s, 019.0C,00002191
2021-03-21 13:17:36 r, 00.00m,0000597058Hz,0000000000c,0000000.000s, 019.3C,00002191
2021-03-21 13:27:35 r, 00.00m,0000596965Hz,0000000000c,0000000.000s, 019.6C,00002191
2021-03-21 13:37:38 r, 00.00m,0000596840Hz,0000000000c,0000000.000s, 020.6C,00002191
2021-03-21 13:47:36 r, 00.00m,0000596792Hz,0000000000c,0000000.000s, 020.9C,00002191
2021-03-21 13:57:35 r, 00.00m,0000596852Hz,0000000000c,0000000.000s, 021.5C,00002191
2021-03-21 14:07:35 r, 00.00m,0000596778Hz,0000000000c,0000000.000s, 022.2C,00002191
2021-03-21 14:17:37 r, 00.00m,0000596728Hz,0000000000c,0000000.000s, 022.5C,00002191
2021-03-21 14:27:36 r, 00.00m,0000596738Hz,0000000000c,0000000.000s, 022.2C,00002191
2021-03-21 14:37:35 r, 00.00m,0000596822Hz,0000000000c,0000000.000s, 022.2C,00002191
2021-03-21 14:47:38 r, 00.00m,0000596750Hz,0000000000c,0000000.000s, 022.2C,00002191
2021-03-21 14:57:36 r, 00.00m,0000596782Hz,0000000000c,0000000.000s, 022.5C,00002191
2021-03-21 15:07:35 r, 00.00m,0000596790Hz,0000000000c,0000000.000s, 022.5C,00002191
2021-03-21 15:17:38 r, 00.00m,0000596697Hz,0000000000c,0000000.000s, 023.2C,00002191
2021-03-21 15:27:36 r, 00.00m,0000596624Hz,0000000000c,0000000.000s, 023.2C,00002191
2021-03-21 15:37:35 r, 00.00m,0000596590Hz,0000000000c,0000000.000s, 023.5C,00002191
2021-03-21 15:47:36 r, 00.00m,0000596608Hz,0000000000c,0000000.000s, 023.8C,00002191
2021-03-21 15:57:37 r, 00.00m,0000596488Hz,0000000000c,0000000.000s, 024.8C,00002191
2021-03-21 16:07:35 r, 00.00m,0000596452Hz,0000000000c,0000000.000s, 026.1C,00002191
2021-03-21 16:17:37 r, 00.00m,0000596294Hz,0000000000c,0000000.000s, 027.0C,00002191
2021-03-21 16:27:36 r, 00.00m,0000596086Hz,0000000000c,0000000.000s, 028.6C,00002191
2021-03-21 16:37:35 r, 00.00m,0000595977Hz,0000000000c,0000000.000s, 029.0C,00002191
2021-03-21 16:47:36 r, 00.00m,0000596008Hz,0000000000c,0000000.000s, 029.6C,00002191
2021-03-21 16:57:38 r, 00.00m,0000596119Hz,0000000000c,0000000.000s, 028.3C,00002191
2021-03-21 17:07:35 r, 00.00m,0000595986Hz,0000000000c,0000000.000s, 029.0C,00002191
2021-03-21 17:17:38 r, 00.00m,0000596119Hz,0000000000c,0000000.000s, 028.3C,00002191
2021-03-21 17:27:36 r, 00.00m,0000596064Hz,0000000000c,0000000.000s, 028.3C,00002191
2021-03-21 17:37:35 r, 00.00m,0000596087Hz,0000000000c,0000000.000s, 028.6C,00002191
2021-03-21 17:47:36 r, 00.00m,0000596050Hz,0000000000c,0000000.000s, 028.3C,00002191
2021-03-21 17:57:37 r, 00.00m,0000596131Hz,0000000000c,0000000.000s, 028.3C,00002191
2021-03-21 18:07:35 r, 00.00m,0000596096Hz,0000000000c,0000000.000s, 029.0C,00002191
2021-03-21 18:17:37 r, 00.00m,0000596267Hz,0000000000c,0000000.000s, 027.3C,00002191
2021-03-21 18:27:36 r, 00.00m,0000596350Hz,0000000000c,0000000.000s, 026.4C,00002191
2021-03-21 18:37:35 r, 00.00m,0000596458Hz,0000000000c,0000000.000s, 025.7C,00002191
2021-03-21 18:47:36 r, 00.00m,0000596531Hz,0000000000c,0000000.000s, 025.1C,00002191
2021-03-21 18:57:38 r, 00.00m,0000596570Hz,0000000000c,0000000.000s, 024.8C,00002191
2021-03-21 19:07:35 r, 00.00m,0000412692Hz,0000000000c,0000000.000s, 024.1C,00002191
2021-03-21 19:17:38 r, 06.20m,0000279098Hz,0000000000c,0000000.000s, 022.8C,00002191
2021-03-21 19:27:36 r, 06.69m,0000178341Hz,0000000000c,0000000.000s, 021.9C,00002191
2021-03-21 19:37:35 r, 07.34m,0000098156Hz,0000000000c,0000000.000s, 021.2C,00002191
2021-03-21 19:47:38 r, 08.36m,0000038145Hz,0000000000c,0000000.000s, 020.6C,00002191
2021-03-21 19:57:36 r, 09.88m,0000009424Hz,0000000000c,0000000.000s, 020.3C,00002191
2021-03-21 20:07:35 r, 11.87m,0000001505Hz,0000000000c,0000000.000s, 019.9C,00002191
2021-03-21 20:17:36 r, 13.97m,0000000218Hz,0000000000c,0000000.000s, 019.6C,00002191
2021-03-21 20:27:37 r, 15.74m,0000000042Hz,0000010826c,0000000.023s, 019.3C,00002191
2021-03-21 20:37:35 r, 16.64m,0000000019Hz,0000024708c,0000000.054s, 018.6C,00002191
2021-03-21 20:47:37 r, 17.03m,0000000012Hz,0000035715c,0000000.078s, 018.3C,00002191
2021-03-21 20:57:36 r, 17.24m,0000000011Hz,0000043175c,0000000.094s, 017.7C,00002191
2021-03-21 21:07:35 r, 17.42m,0000000009Hz,0000050943c,0000000.111s, 017.7C,00002191
2021-03-21 21:17:36 r, 17.64m,0000000008Hz,0000062429c,0000000.135s, 017.4C,00002191
2021-03-21 21:27:38 r, 17.90m,0000000006Hz,0000079538c,0000000.173s, 017.0C,00002191
2021-03-21 21:37:35 r, 18.19m,0000000005Hz,0000103498c,0000000.225s, 017.0C,00002191
2021-03-21 21:47:38 r, 18.41m,0000000003Hz,0000126438c,0000000.274s, 016.7C,00002191
2021-03-21 21:57:36 r, 18.58m,0000000003Hz,0000148499c,0000000.322s, 016.4C,00002191
2021-03-21 22:07:36 r, 18.72m,0000000002Hz,0000169087c,0000000.367s, 016.1C,00002191
2021-03-21 22:17:36 r, 18.86m,0000000002Hz,0000192181c,0000000.417s, 015.7C,00002191
2021-03-21 22:27:37 r, 19.02m,0000000002Hz,0000222071c,0000000.482s, 015.4C,00002191
2021-03-21 22:37:35 r, 18.39m,0000000004Hz,0000124762c,0000000.271s, 015.4C,00002191
2021-03-21 22:47:37 r, 18.44m,0000000004Hz,0000130826c,0000000.284s, 015.7C,00002191
2021-03-21 22:57:36 r, 18.49m,0000000003Hz,0000137110c,0000000.298s, 016.1C,00002191
2021-03-21 23:07:35 r, 18.57m,0000000003Hz,0000147370c,0000000.320s, 016.4C,00002191
2021-03-21 23:17:36 r, 18.67m,0000000002Hz,0000161114c,0000000.350s, 016.4C,00002191
2021-03-21 23:27:38 r, 18.68m,0000000002Hz,0000162273c,0000000.352s, 016.7C,00002191
2021-03-21 23:37:35 r, 18.65m,0000000003Hz,0000158394c,0000000.344s, 016.7C,00002191
2021-03-21 23:47:38 r, 18.63m,0000000003Hz,0000156168c,0000000.339s, 016.7C,00002191
2021-03-21 23:57:36 r, 18.66m,0000000003Hz,0000160491c,0000000.348s, 016.4C,00002191
